This demonstration page uses our WeatherBlox Daily Observations layout. Learn more.

Left ArrowRight Arrow

Hourly Observations for March 13, 2020

Temp ( °F °C ) Dew Point ( °F °C ) Humidity (%) Winds ( mph kmh ) Pressure ( in mb ) Visibility ( mi km ) Precip ( " mm )
12:56 am 00:56 Clear 34 1 24 -4.6 67 67 W 3 6 30.18 1022 10 16 0.00 0.00
1:56 am 01:56 Clear 30 -1 24 -4.7 76 76 W 6 9 30.21 1023 10 16 0.00 0.00
2:56 am 02:56 Clear 30 -1 25 -4 80 80 WNW 6 9 30.26 1025 10 16 0.00 0.00
3:56 am 03:56 Clear 27 -2.7 22 -5.4 82 82 NW 7 11 30.25 1024 10 16 0.00 0.00
4:56 am 04:56 Clear 29 -1.5 22 -5.4 75 75 W 5 7 30.27 1025 10 16 0.00 0.00
5:56 am 05:56 Clear 28 -2.5 21 -6 77 77 WSW 3 6 30.29 1026 10 16 0.00 0.00
6:56 am 06:56 Clear 25 -3.9 20 -6.5 82 82 WNW 3 6 30.31 1026 10 16 0.00 0.00
7:56 am 07:56 Sunny 23 -5.1 20 -6.8 88 88 Calm 30.33 1027 10 16 0.00 0.00
8:56 am 08:56 Sunny 32 -0.2 25 -3.9 76 76 WNW 5 7 30.34 1027 10 16 0.00 0.00
9:56 am 09:56 Mostly Cloudy 36 2.2 25 -3.9 64 64 Calm 30.39 1029 10 16 0.00 0.00
10:56 am 10:56 Cloudy 39 4 24 -4.2 56 56 Calm 30.41 1030 10 16 0.00 0.00
11:56 am 11:56 Mostly Cloudy 43 6.2 20 -6.7 39 39 N 7 11 30.42 1030 10 16 0.00 0.00
12:56 pm 12:56 Mostly Cloudy 45 7.3 19 -7.2 35 35 NE 5 7 30.44 1031 10 16 0.00 0.00
1:56 pm 13:56 Mostly Cloudy 46 7.7 20 -6.4 36 36 SE 5 7 30.43 1030 10 16 0.00 0.00
2:56 pm 14:56 Cloudy 47 8.4 19 -7 33 33 N 5 7 30.40 1030 10 16 0.00 0.00
3:56 pm 15:56 Mostly Cloudy 49 9.4 22 -5.7 34 34 NE 5 7 30.39 1029 10 16 0.00 0.00
4:56 pm 16:56 Cloudy 47 8.4 21 -6.2 35 35 NNE 9 15 30.39 1029 10 16 0.00 0.00
5:56 pm 17:56 Cloudy 46 8 20 -6.5 35 35 Calm 30.42 1030 10 16 0.00 0.00
6:56 pm 18:56 Cloudy 44 6.6 26 -3.6 48 48 SE 10 17 30.41 1030 10 16 0.00 0.00
7:56 pm 19:56 Cloudy 42 5.3 28 -2.5 58 58 ESE 14 22 30.44 1031 10 16 0.00 0.00
8:56 pm 20:56 Cloudy with Drizzle 38 3.4 32 -0.2 78 78 ESE 7 11 30.45 1031 10 16 0.00 0.00
9:56 pm 21:56 Cloudy with Light Rain 37 3 33 0.4 83 83 ESE 7 11 30.45 1031 10 16 0.00 0.00
10:56 pm 22:56 Cloudy with Light Rain 37 2.5 33 0.6 87 87 E 8 13 30.43 1030 10 16 0.01 0.25
11:56 pm 23:56 Cloudy with Light Rain 36 2.3 33 0.7 89 89 E 10 17 30.42 1030 10 16 0.00 0.00

Powered by AerisWeather